Morristown, NJ

7:56 AM EST on November 12, 2019 (GMT -0500)
Morristown Municipal

Weather History for KMMU - October, 2019

Change the Weather History Date:

Monday, October 14, 2019

  Actual Average Record
Temperature  
Mean Temperature 58 °F -  
Max Temperature 71 °F 65 °F 87 °F (1954)
Min Temperature 46 °F 43 °F 23 °F (1934)
Degree Days  
Heating Degree Days 6    
Growing Degree Days 8 (Base 50)    
Moisture  
Dew Point 51 °F    
Average Humidity 84    
Maximum Humidity 100    
Minimum Humidity 35    
Precipitation  
Precipitation 0.00 in - - ()
Sea Level Pressure  
Sea Level Pressure 29.98 in    
Wind  
Wind Speed 2 mph ()    
Max Wind Speed 14 mph    
Max Gust Speed 24 mph    
Visibility 9.7 miles    
Events      
Averages and records for this station are not official NWS values.
T = Trace of Precipitation, MM = Missing Value Source: Averaged Metar Reports

Daily Weather History Graph

Daily Weather History Graph

Search for Another Location

Airport or City:

Astronomy

Oct. 14, 2019 Rise Set
Actual Time 7:07 AM EDT 6:19 PM EDT
Civil Twilight 6:39 AM EDT 6:46 PM EDT
Nautical Twilight 6:08 AM EDT 7:18 PM EDT
Astronomical Twilight 5:36 AM EDT 7:50 PM EDT
Moon 7:07 PM EDT (10/14) 7:36 AM EDT (10/14)
Length of Visible Light 12h 06m
Length of Day
11h 11m
Waxing Gibbous, 99% of the Moon is Illuminated
Oct 14
Waxing Gibbous
Oct 21
Last Quarter
Oct 27
New
Nov 4
First Quarter
Nov 12
Full

Hourly Weather History & Observations

Time (EDT) Temp. Dew Point Humidity Pressure Visibility Wind Dir Wind Speed Gust Speed Precip Events Conditions
12:15 AM 57.2 °F 53.6 °F 88% 30.01 in 10.0 mi Calm Calm - N/A   Overcast
12:35 AM 55.4 °F 53.6 °F 94% 30.01 in 10.0 mi Calm Calm - N/A   Overcast
12:55 AM 55.4 °F 53.6 °F 94% 30.01 in 10.0 mi Calm Calm - N/A   Overcast
1:15 AM 55.4 °F 53.6 °F 94% 30.00 in 10.0 mi Calm Calm - N/A   Overcast
1:35 AM 55.4 °F 55.4 °F 100% 30.00 in 10.0 mi Calm Calm - N/A   Overcast
1:55 AM 55.4 °F 55.4 °F 100% 30.00 in 10.0 mi Calm Calm - N/A   Overcast
2:15 AM 55.4 °F 55.4 °F 100% 29.98 in 10.0 mi Calm Calm - N/A   Overcast
2:35 AM 55.4 °F 55.4 °F 100% 29.98 in 10.0 mi Calm Calm - N/A   Overcast
2:55 AM 55.4 °F 55.4 °F 100% 29.97 in 10.0 mi Calm Calm - N/A   Overcast
3:15 AM 55.4 °F 55.4 °F 100% 29.97 in 10.0 mi Calm Calm - N/A   Overcast
3:35 AM 55.4 °F 55.4 °F 100% 29.96 in 10.0 mi Calm Calm - N/A   Overcast
3:55 AM 55.4 °F 55.4 °F 100% 29.95 in 10.0 mi Calm Calm - N/A   Overcast
4:15 AM 55.4 °F 55.4 °F 100% 29.95 in 10.0 mi Calm Calm - N/A   Overcast
4:35 AM 53.6 °F 53.6 °F 100% 29.95 in 10.0 mi Calm Calm - N/A   Mostly Cloudy
4:55 AM 50.0 °F 50.0 °F 100% 29.95 in 10.0 mi Calm Calm - N/A   Scattered Clouds
5:15 AM 48.2 °F 48.2 °F 100% 29.96 in 10.0 mi Calm Calm - N/A   Clear
5:35 AM 50.0 °F 50.0 °F 100% 29.96 in 4.0 mi Calm Calm - N/A   Mostly Cloudy
5:55 AM 50.0 °F 50.0 °F 100% 29.97 in 10.0 mi Calm Calm - N/A   Overcast
6:15 AM 51.8 °F 51.8 °F 100% 29.98 in 10.0 mi Calm Calm - N/A   Overcast
6:35 AM 53.6 °F 53.6 °F 100% 29.98 in 10.0 mi Calm Calm - N/A   Overcast
6:45 AM 53.6 °F 53.6 °F 100% 29.99 in 8.0 mi NNW 3.5 mph - N/A   Overcast
6:46 AM 53.6 °F 53.6 °F 100% 29.99 in 8.0 mi NNW 3.5 mph - N/A   Overcast
6:47 AM 53.6 °F 53.6 °F 100% 29.99 in 8.0 mi NNW 3.5 mph - N/A   Overcast
7:45 AM 55.4 °F 55.4 °F 100% 30.00 in 10.0 mi Calm Calm - N/A   Mostly Cloudy
8:45 AM 57.2 °F 57.2 °F 100% 30.01 in 10.0 mi WSW 3.5 mph - N/A   Mostly Cloudy
9:45 AM 60.8 °F 55.4 °F 82% 30.01 in 10.0 mi WSW 8.1 mph - N/A   Mostly Cloudy
10:45 AM 62.6 °F 53.6 °F 72% 30.01 in 10.0 mi WNW 4.6 mph - N/A   Scattered Clouds
11:45 AM 66.2 °F 53.6 °F 64% 29.98 in 10.0 mi WNW 5.8 mph - N/A   Clear
12:50 PM 69.8 °F 50.0 °F 49% 29.96 in 10.0 mi West 5.8 mph - N/A   Clear
1:45 PM 71.6 °F 46.4 °F 41% 29.94 in 10.0 mi WNW 12.7 mph 18.4 mph N/A   Clear
2:45 PM 71.6 °F 44.6 °F 38% 29.91 in 10.0 mi West 10.4 mph 19.6 mph N/A   Clear
3:45 PM 71.6 °F 42.8 °F 35% 29.91 in 10.0 mi West 13.8 mph 24.2 mph N/A   Clear
4:45 PM 71.6 °F 42.8 °F 35% 29.91 in 10.0 mi West 13.8 mph 20.7 mph N/A   Clear
5:45 PM 69.8 °F 42.8 °F 38% 29.93 in 10.0 mi West 11.5 mph - N/A   Clear
6:45 PM 62.6 °F 46.4 °F 55% 29.95 in 10.0 mi West 4.6 mph - N/A   Clear
7:45 PM 53.6 °F 48.2 °F 82% 29.98 in 10.0 mi Calm Calm - N/A   Clear
8:45 PM 50.0 °F 48.2 °F 94% 30.00 in 10.0 mi Calm Calm - N/A   Clear
9:45 PM 50.0 °F 46.4 °F 87% 30.02 in 10.0 mi NW 5.8 mph - N/A   Clear
10:35 PM 46.4 °F 46.4 °F 100% 30.03 in 10.0 mi Calm Calm - N/A   Clear
10:55 PM 48.2 °F 44.6 °F 87% 30.04 in 10.0 mi NW 4.6 mph - N/A   Clear
11:15 PM 55.4 °F 42.8 °F 63% 30.04 in 10.0 mi NW 3.5 mph - N/A   Clear
11:35 PM 57.2 °F 42.8 °F 59% 30.05 in 10.0 mi NNW 4.6 mph - N/A   Clear
11:55 PM 55.4 °F 42.8 °F 63% 30.06 in 10.0 mi NNW 6.9 mph - N/A   Clear